User: anonymous   Login
Location: Unspecified
(0.0000°N, 0.0000°E)
Time: 21:25:41
(UTC+00:00)
Language:

NANOSAT 1B - Orbit

View from above orbital plane
View from above orbital plane
View from above satellite
View from above satellite

Ground track
Ground track

The orbit data is extracted from the following two-line orbital elements,

1 35685U 09041E   18052.54175328  .00000153  00000-0  25194-4 0  9996
2 35685  98.2699  40.5651 0058292 326.7718  32.9839 14.84057133463242
Epoch (UTC): 21 February 2018 13:00:07
Eccentricity: 0.0058292
inclination: 98.2699°
perigee height: 576 km
apogee height: 657 km
right ascension of ascending node: 40.5651°
argument of perigee: 326.7718°
revolutions per day: 14.84057133
mean anomaly at epoch: 32.9839°
orbit number at epoch: 46324

The dashed part of the orbit path shows where the satellite is in the earth's shadow,  

DLR